Probability
0 0 0 0 0 0 0 0 0 0 0 0 0 0 0 0 0 0 0 0 0 0 0 0 0 0 0 0 0 0 0 10 23 52 71 68 48 32 19 13 3 0 0 0
0 0 0 0 0 0 0 0 0 0 0 0 0 0 0 0 0 0 0 0 0 0 0 0 0 0 0 0 0 0 0 0 16 29 55 42 6 6 6 3 3 0 0 0
0 0 0 0 0 0 0 0 0 0 0 0 0 0 0 0 0 0 0 0 0 0 0 0 0 0 0 0 0 0 0 0 6 26 19 3 3 3 3 3 0 0 0 0
0 0 0 0 0 0 0 0 0 0 0 0 0 0 0 0 0 0 0 0 0 0 0 0 0 0 0 0 0 0 0 0 0 3 0 3 3 0 0 0 0 0 0 0
0 0 0 0 0 0 0 0 0 0 0 0 0 0 0 0 0 0 0 0 0 0 0 0 0 0 0 0 0 0 0 0 0 3 0 3 3 0 0 0 0 0 0 0
0 0 0 0 0 0 0 0 0 0 0 0 0 0 0 0 0 0 0 0 0 0 0 0 0 0 0 0 0 0 0 0 0 0 0 0 0 0 0 0 0 0 0 0
0 0 0 0 0 0 0 0 0 0 0 0 0 0 0 0 0 0 0 0 0 0 0 0 0 0 0 0 0 0 0 0 0 0 0 0 0 0 0 0 0 0 0 0
0 0 0 0 0 0 0 0 0 0 0 0 0 0 0 0 0 0 0 0 0 0 0 0 0 0 0 0 0 0 0 0 0 0 0 0 0 0 0 0 0 0 0 0
0 0 0 0 0 0 0 0 0 0 0 0 0 0 0 0 0 0 0 0 0 0 0 0 0 0 0 0 0 0 0 0 0 0 0 0 0 0 0 0 0 0 0 0
0 0 0 0 0 0 0 0 0 0 0 0 0 0 0 0 0 0 0 0 0 0 0 0 0 0 0 0 0 0 0 0 0 0 0 0 0 0 0 0 0 0 0 0
0 0 0 0 0 0 0 0 0 0 0 0 0 0 0 0 0 0 0 0 0 0 0 0 0 0 0 0 0 0 0 0 0 0 0 0 0 0 0 0 0 0 0 0
0 0 0 0 0 0 0 0 0 0 0 0 0 0 0 0 0 0 0 0 0 0 0 0 0 0 0 0 0 0 0 0 0 0 0 0 0 0 0 0 0 0 0 0
0 0 0 0 0 0 0 0 0 0 0 0 0 0 0 0 0 0 0 0 0 0 0 0 0 0 0 0 0 0 0 0 0 0 0 0 0 0 0 0 0 0 0 0
0 0 0 0 0 0 0 0 0 0 0 0 0 0 0 0 0 0 0 0 0 0 0 0 0 0 0 0 0 0 0 0 0 0 0 0 0 0 0 0 0 0 0 0
0 0 0 0 0 0 0 0 0 0 0 0 0 0 0 0 0 0 0 0 0 0 0 0 0 0 0 0 0 0 0 0 0 0 0 0 0 0 0 0 0 0 0 0
0 0 0 0 0 0 0 0 0 0 0 0 0 0 0 0 0 0 0 0 0 0 0 0 0 0 0 0 0 0 0 0 0 0 0 0 0 0 0 0 0 0 0 0
0 0 0 0 0 0 0 0 0 0 0 0 0 0 0 0 0 0 0 0 0 0 0 0 0 0 0 0 0 0 0 0 0 0 0 0 0 0 0 0 0 0 0 0
0 0 0 0 0 0 0 0 0 0 0 0 0 0 0 0 0 0 0 0 0 0 0 0 0 0 0 0 0 0 0 0 0 0 0 0 0 0 0 0 0 0 0 0
0 0 0 0 0 0 0 0 0 0 0 0 0 0 0 0 0 0 0 0 0 0 0 0 0 0 0 0 0 0 0 0 0 0 0 0 0 0 0 0 0 0 0 0
0 0 0 0 0 0 0 0 0 0 0 0 0 0 0 0 0 0 0 0 0 0 0 0 0 0 0 0 0 0 0 0 0 0 0 0 0 0 0 0 0 0 0 0
0 0 0 0 0 0 0 0 0 0 0 0 0 0 0 0 0 0 0 0 0 0 0 0 0 0 0 0 0 0 0 0 0 0 0 0 0 0 0 0 0 0 0 0
0 0 0 0 0 0 0 0 0 0 0 0 0 0 0 0 0 0 0 0 0 0 0 0 0 0 0 0 0 0 0 0 0 0 0 0 0 0 0 0 0 0 0 0
0 0 0 0 0 0 0 0 0 0 0 0 0 0 0 0 0 0 0 0 0 0 0 0 0 0 0 0 0 0 0 0 0 0 0 0 0 0 0 0 0 0 0 0
0 0 0 0 0 0 0 0 0 0 0 0 0 0 0 0 0 0 0 0 0 0 0 0 0 0 0 0 0 0 0 0 0 0 0 0 0 0 0 0 0 0 0 0
0 0 0 0 0 0 0 0 0 0 0 0 0 0 0 0 0 0 0 0 0 0 0 0 0 0 0 0 0 0 0 0 0 0 0 0 0 0 0 0 0 0 0 0
0 0 0 0 0 0 0 0 0 0 0 0 0 0 0 0 0 0 0 0 0 0 0 0 0 0 0 0 0 0 0 0 0 0 0 0 0 0 0 0 0 0 0 0
Height
5659 5666 5671 5677 5681 5686 5691 5696 5700 5704 5707 5711 5716 5720 5723 5725 5728 5730 5731 5733 5735 5737 5739 5740 5742 5744 5745 5747 5748 5749 5751 5753 5754 5755 5757 5759 5760 5761 5763 5765 5766 5767 5767 5767
5655 5660 5666 5670 5675 5680 5685 5690 5694 5697 5700 5705 5709 5713 5716 5718 5720 5722 5723 5724 5726 5727 5729 5730 5732 5733 5735 5737 5738 5740 5741 5743 5745 5747 5749 5750 5751 5753 5755 5757 5759 5759 5759 5760
5650 5656 5661 5666 5671 5676 5680 5685 5688 5692 5695 5698 5701 5707 5710 5712 5712 5714 5714 5714 5715 5717 5718 5719 5721 5722 5724 5726 5727 5729 5731 5732 5735 5737 5738 5741 5743 5745 5747 5749 5751 5751 5752 5752
5645 5651 5657 5662 5667 5671 5676 5680 5683 5686 5689 5693 5695 5697 5706 5704 5704 5703 5704 5704 5704 5705 5706 5707 5708 5710 5711 5713 5715 5717 5719 5721 5723 5726 5729 5732 5735 5737 5739 5741 5742 5743 5744 5744
5642 5648 5653 5658 5663 5667 5671 5675 5678 5681 5683 5686 5689 5689 5697 5694 5694 5692 5692 5692 5692 5692 5692 5693 5694 5696 5697 5699 5701 5704 5706 5709 5711 5715 5719 5723 5725 5728 5730 5732 5734 5735 5736 5736
5639 5645 5650 5655 5659 5663 5667 5671 5673 5674 5677 5681 5681 5680 5687 5684 5681 5679 5678 5677 5676 5676 5677 5678 5678 5680 5682 5684 5686 5689 5692 5695 5699 5703 5709 5712 5715 5719 5722 5724 5725 5727 5728 5728
5636 5641 5646 5651 5656 5660 5663 5666 5668 5669 5670 5673 5672 5672 5678 5674 5669 5665 5664 5662 5660 5660 5660 5661 5662 5663 5665 5667 5670 5673 5677 5682 5686 5691 5697 5701 5705 5709 5712 5715 5717 5718 5719 5720
5633 5639 5643 5648 5652 5655 5657 5660 5662 5663 5663 5664 5663 5662 5666 5662 5657 5652 5650 5648 5646 5645 5643 5643 5644 5645 5648 5650 5653 5657 5662 5667 5673 5678 5684 5689 5695 5699 5703 5706 5708 5710 5711 5712
5629 5635 5639 5643 5647 5650 5652 5654 5655 5656 5655 5655 5655 5654 5654 5650 5645 5641 5637 5633 5630 5628 5627 5626 5626 5627 5629 5633 5637 5641 5647 5653 5659 5665 5672 5678 5684 5689 5693 5696 5699 5701 5702 5703
5625 5631 5635 5638 5642 5644 5647 5648 5649 5649 5647 5646 5646 5645 5643 5638 5633 5629 5623 5618 5614 5611 5609 5607 5607 5608 5611 5615 5619 5624 5631 5639 5646 5653 5660 5667 5674 5679 5683 5687 5690 5692 5694 5695
5622 5627 5631 5634 5637 5639 5642 5643 5642 5642 5641 5639 5636 5639 5634 5628 5622 5616 5611 5604 5598 5594 5591 5588 5588 5589 5592 5596 5602 5608 5615 5624 5632 5641 5650 5657 5664 5669 5674 5678 5682 5684 5686 5687
5618 5623 5627 5630 5632 5634 5636 5637 5637 5637 5635 5631 5628 5631 5625 5618 5611 5605 5599 5591 5584 5578 5574 5571 5571 5571 5574 5580 5586 5593 5601 5610 5621 5631 5640 5648 5654 5660 5666 5670 5673 5676 5678 5679
5615 5620 5623 5625 5629 5630 5631 5631 5631 5629 5628 5625 5621 5622 5616 5609 5601 5594 5587 5579 5572 5565 5559 5556 5555 5556 5559 5565 5573 5580 5589 5600 5612 5622 5631 5639 5646 5653 5658 5662 5666 5668 5670 5671
5612 5616 5620 5622 5623 5626 5627 5627 5625 5623 5621 5618 5615 5612 5609 5601 5593 5586 5578 5568 5560 5553 5547 5543 5542 5543 5548 5555 5563 5571 5581 5593 5605 5615 5624 5632 5639 5646 5651 5655 5659 5661 5663 5663
5609 5613 5615 5617 5619 5621 5622 5622 5620 5618 5616 5613 5610 5606 5601 5594 5586 5578 5569 5560 5552 5544 5538 5535 5534 5536 5542 5549 5557 5567 5577 5589 5600 5610 5618 5627 5634 5640 5645 5649 5652 5654 5655 5655
5606 5610 5612 5614 5616 5617 5618 5618 5616 5614 5611 5608 5605 5602 5596 5589 5581 5573 5564 5555 5547 5540 5535 5532 5533 5535 5541 5548 5556 5566 5576 5587 5597 5606 5615 5623 5630 5635 5640 5643 5646 5647 5648 5648
5604 5607 5610 5611 5612 5614 5615 5614 5613 5611 5608 5605 5602 5599 5593 5587 5579 5571 5563 5554 5546 5540 5536 5535 5536 5538 5544 5551 5559 5568 5578 5587 5597 5605 5613 5620 5626 5631 5635 5638 5640 5641 5641 5639
5601 5604 5606 5608 5611 5611 5614 5611 5610 5608 5606 5603 5599 5595 5591 5586 5579 5572 5565 5557 5550 5545 5542 5541 5542 5545 5550 5557 5564 5573 5581 5589 5597 5605 5612 5618 5623 5627 5630 5632 5634 5634 5633 5631
5599 5601 5604 5606 5607 5608 5609 5608 5607 5605 5604 5601 5597 5594 5590 5586 5581 5575 5568 5562 5556 5552 5549 5549 5550 5553 5558 5564 5571 5577 5585 5592 5599 5605 5611 5616 5620 5623 5626 5627 5627 5626 5625 5623
5596 5599 5602 5603 5604 5606 5608 5606 5604 5604 5602 5599 5596 5593 5591 5587 5584 5579 5573 5568 5564 5561 5559 5559 5560 5563 5567 5572 5577 5583 5588 5594 5600 5605 5610 5613 5617 5619 5620 5620 5620 5619 5617 5614
5594 5597 5599 5600 5601 5603 5604 5603 5603 5603 5602 5598 5595 5593 5591 5588 5586 5583 5578 5575 5572 5570 5569 5569 5570 5572 5575 5578 5583 5587 5592 5596 5601 5605 5608 5611 5613 5614 5614 5614 5613 5611 5608 5604
5592 5594 5596 5598 5599 5603 5602 5601 5601 5600 5598 5597 5595 5593 5591 5589 5587 5584 5582 5580 5578 5577 5576 5577 5578 5579 5582 5584 5587 5591 5594 5598 5601 5604 5606 5608 5609 5609 5608 5607 5605 5602 5599 5595
5590 5593 5594 5597 5599 5599 5599 5598 5599 5598 5597 5596 5595 5593 5592 5590 5588 5587 5585 5584 5583 5582 5582 5582 5583 5584 5586 5588 5591 5593 5596 5598 5600 5602 5603 5604 5604 5603 5602 5600 5597 5594 5590 5585
5587 5589 5591 5593 5595 5595 5596 5596 5596 5596 5596 5595 5594 5593 5592 5591 5589 5588 5587 5587 5586 5586 5586 5586 5587 5588 5589 5591 5592 5594 5596 5597 5599 5599 5600 5599 5598 5597 5595 5592 5589 5585 5581 5576
5585 5586 5588 5590 5591 5592 5593 5594 5594 5594 5594 5593 5593 5592 5591 5591 5590 5589 5589 5588 5588 5588 5588 5588 5589 5590 5591 5592 5593 5594 5595 5595 5596 5595 5595 5594 5592 5590 5587 5584 5580 5576 5571 5565
5581 5583 5585 5587 5588 5590 5591 5591 5592 5592 5592 5592 5591 5591 5590 5590 5590 5589 5589 5589 5589 5589 5589 5589 5590 5590 5591 5591 5592 5592 5593 5592 5592 5591 5590 5588 5586 5583 5580 5576 5571 5566 5561 5555
Wind_Speed
36 38 38 38 38 39 39 38 37 38 39 39 38 37 35 35 35 35 36 37 38 38 38 38 39 39 39 40 41 42 42 41 42 43 42 40 40 40 39 38 37 37 37 38
34 35 34 35 36 36 36 35 35 36 37 38 38 37 36 36 37 37 38 39 40 41 42 42 42 43 43 43 44 44 45 44 44 45 44 43 42 41 39 39 38 38 38 39
32 31 31 32 32 32 32 33 33 33 34 35 37 38 37 37 38 39 40 42 44 45 46 46 46 47 47 47 47 47 47 48 47 47 47 46 44 42 40 40 39 39 39 39
30 30 30 30 29 30 30 29 29 30 32 33 36 39 37 38 40 43 44 45 47 49 50 50 51 51 51 50 51 50 50 50 51 50 49 47 46 44 42 41 40 40 39 39
28 28 27 27 27 27 27 26 27 29 32 34 35 40 39 41 43 46 48 49 50 51 53 54 55 55 55 54 54 53 53 52 53 53 50 48 48 46 44 43 41 40 40 40
28 27 26 25 25 25 25 26 28 30 33 35 36 40 40 43 46 48 50 52 53 53 54 54 55 56 56 57 57 56 55 54 53 53 51 50 49 48 46 44 42 41 41 40
28 26 25 24 24 24 25 26 29 32 34 36 39 42 40 42 45 48 49 51 53 54 54 54 54 54 55 56 57 57 56 55 54 52 51 51 50 49 47 46 44 42 41 40
27 26 24 24 24 24 26 27 30 33 35 37 40 42 40 41 44 46 48 49 50 51 52 52 52 53 54 55 56 57 56 55 54 52 51 51 50 49 48 46 44 43 42 41
27 26 25 24 25 25 26 28 30 33 36 38 39 39 38 40 43 45 47 50 51 52 52 52 52 52 51 52 54 55 55 54 53 52 51 50 49 49 48 46 44 43 42 41
27 26 25 24 25 26 27 28 30 32 35 37 36 36 37 39 42 44 47 50 52 53 52 52 51 51 50 50 51 53 53 53 52 52 51 49 48 48 47 45 44 43 41 40
26 26 24 24 25 26 27 28 29 31 33 35 36 35 36 38 40 43 47 49 51 52 51 50 50 49 48 48 49 50 51 51 51 50 49 48 47 46 45 44 43 42 40 39
25 24 24 24 25 26 26 26 27 29 31 33 36 34 33 36 39 42 45 47 48 48 48 47 46 45 44 44 44 45 47 49 49 48 46 46 45 44 43 43 42 41 40 39
24 23 23 24 24 24 24 24 26 28 30 31 33 31 32 36 38 40 43 44 44 44 44 42 39 39 38 39 40 41 43 45 45 44 43 43 43 42 41 41 40 39 39 38
23 22 22 23 23 21 20 22 24 26 28 28 28 28 27 32 35 38 40 40 38 38 37 34 32 32 31 33 35 36 39 41 40 40 40 40 40 40 39 39 38 38 37 38
22 21 21 21 20 18 17 18 21 23 24 24 23 26 28 31 32 34 35 33 31 30 27 23 21 22 24 27 29 32 35 36 37 37 37 37 37 36 36 36 36 36 36 37
20 19 19 19 18 16 15 16 18 18 20 21 22 23 27 29 29 28 28 26 22 19 14 10 10 13 18 21 25 29 32 33 34 34 33 33 33 33 33 33 33 34 35 37
18 18 18 17 16 14 13 14 14 15 18 19 20 22 25 25 25 24 23 20 15 11 5 1 5 11 15 20 24 26 28 29 29 29 28 29 29 29 30 30 31 33 35 37
17 17 16 15 14 13 12 11 12 14 15 16 18 20 21 22 21 20 19 18 13 10 8 8 10 13 16 19 22 23 24 24 24 24 24 24 24 25 27 28 30 32 35 37
17 16 14 13 12 11 10 10 11 11 12 14 15 16 17 18 18 17 17 17 17 15 13 15 16 17 18 19 20 20 20 19 18 18 18 19 20 22 25 27 30 33 35 37
16 15 13 11 10 9 8 8 8 9 10 12 12 13 15 15 16 16 15 16 17 18 18 17 18 18 18 18 17 16 16 15 14 15 16 18 20 22 25 27 30 32 35 36
15 15 13 11 9 8 7 7 7 7 8 10 11 11 13 13 13 13 14 14 15 15 16 16 16 15 15 15 14 13 12 12 12 13 15 17 20 23 25 27 30 32 34 37
15 15 13 11 10 9 8 7 7 7 7 8 9 10 10 10 9 9 10 11 11 12 12 13 13 12 12 12 11 11 11 11 12 14 17 19 21 23 25 27 29 32 34 37
15 14 13 12 11 10 9 8 7 7 7 7 8 7 8 7 7 7 7 8 8 8 7 8 9 8 8 9 9 9 10 12 13 14 16 18 19 21 24 27 29 33 36 39
15 15 13 12 12 11 10 9 8 7 7 7 6 5 5 6 5 4 4 6 5 5 5 5 6 6 5 5 6 7 7 8 9 11 14 16 19 22 25 28 31 34 37 40
15 16 15 14 14 12 11 10 9 8 8 7 6 5 4 3 3 2 2 3 3 3 3 3 2 2 2 2 3 4 6 7 10 12 15 18 21 24 27 30 33 36 38 40
16 17 17 16 15 14 13 12 11 10 9 8 7 7 5 4 3 2 1 1 0 1 1 1 0 1 1 2 3 5 7 10 12 15 18 20 23 26 29 32 34 37 39 41
Wind_Direction
224 225 226 227 228 230 230 231 232 233 234 234 236 238 240 243 248 251 254 257 260 262 263 264 264 263 262 262 261 260 260 259 259 260 261 263 263 264 264 265 267 268 270 273
222 222 223 225 226 228 229 230 232 233 236 237 237 239 243 247 251 254 257 259 261 263 264 265 265 264 264 262 261 259 258 257 257 258 258 259 260 262 264 264 266 268 270 272
220 219 220 222 224 226 228 230 233 236 239 242 243 241 246 251 256 259 262 263 264 264 265 265 265 265 264 263 261 259 257 256 255 254 255 256 258 261 263 264 265 267 270 272
215 214 217 220 222 224 228 231 236 240 243 246 250 251 247 257 262 263 264 265 266 266 266 266 265 264 264 263 261 259 256 254 253 252 253 254 256 258 260 262 264 266 269 272
212 212 214 218 221 225 231 235 243 248 252 254 258 263 258 264 267 269 269 269 269 268 267 266 265 264 262 261 260 258 256 253 252 251 251 251 252 254 257 260 263 265 268 270
210 211 213 218 224 231 237 244 252 257 260 263 266 270 268 273 276 276 275 274 273 271 269 268 266 264 262 260 258 257 255 253 251 250 248 248 249 252 254 257 260 263 266 269
211 212 216 222 230 238 246 254 261 265 267 270 273 275 276 278 280 280 280 279 279 277 275 272 268 265 261 258 256 254 253 251 250 249 246 246 247 249 251 255 258 261 265 268
214 217 222 229 238 246 253 260 267 271 274 275 277 281 282 283 283 282 282 281 281 281 279 277 273 267 262 257 255 252 250 249 247 246 245 244 244 246 249 253 256 260 263 267
218 223 228 236 244 251 258 264 270 275 278 280 282 285 286 287 287 288 287 286 285 283 281 279 275 270 262 256 252 250 248 246 244 242 242 241 241 243 247 250 254 257 261 265
221 227 232 240 248 254 260 267 273 277 281 284 286 289 293 295 297 295 293 292 290 288 285 281 277 271 262 255 250 246 244 242 240 239 238 238 238 240 244 248 252 256 260 264
224 230 236 243 249 256 263 269 273 277 281 287 290 294 302 302 299 297 296 295 292 290 287 283 277 271 261 253 248 243 240 237 235 235 235 235 235 238 242 246 251 255 259 263
225 231 238 244 251 257 264 269 274 280 285 289 294 301 306 303 301 301 299 297 295 292 288 283 276 268 258 249 242 237 234 231 229 229 231 232 233 236 240 245 250 254 258 263
224 231 239 245 250 256 264 270 276 281 287 293 298 307 310 306 306 306 304 301 296 292 288 282 274 264 252 243 235 230 226 223 222 223 225 228 230 234 239 244 249 254 260 265
224 231 239 246 252 256 265 273 279 286 293 300 307 311 314 311 309 309 309 306 301 295 290 282 271 258 245 235 228 223 217 214 215 217 220 223 228 233 239 245 251 256 262 267
224 229 236 244 251 259 267 275 282 290 298 306 315 319 322 321 319 318 316 312 306 301 293 282 267 250 234 223 219 212 206 205 207 211 216 221 227 233 240 246 252 258 264 271
223 227 232 241 251 260 270 278 287 295 302 311 321 328 328 330 329 328 326 324 320 316 304 283 247 225 212 205 202 196 195 198 202 208 213 220 228 234 241 248 255 262 268 273
220 223 229 240 249 259 269 280 292 303 310 316 325 332 335 339 340 341 342 345 347 351 358 90 164 171 176 180 182 184 187 192 198 205 212 221 229 237 245 253 259 266 271 276
218 222 228 235 247 262 271 284 298 308 315 322 328 335 342 346 349 355 2 10 19 39 66 100 129 144 155 163 168 173 179 185 194 203 212 223 232 241 250 257 265 270 274 277
219 222 225 231 245 258 272 288 300 308 317 328 333 340 346 354 2 10 19 30 44 57 82 99 113 127 140 149 156 163 172 181 191 202 215 226 237 247 255 261 266 271 275 278
218 219 224 231 239 252 271 287 299 311 322 334 339 343 350 358 6 18 33 47 60 68 81 95 106 116 126 133 142 153 163 174 189 206 221 233 242 251 257 263 269 273 277 282
220 220 226 231 238 248 265 284 299 312 326 338 343 346 349 353 5 21 37 53 65 74 86 95 105 114 123 131 140 151 167 183 200 216 230 242 249 255 262 268 273 278 283 288
223 224 228 233 241 247 260 279 295 306 321 336 345 351 352 355 11 23 35 52 65 74 90 101 108 117 129 141 153 165 179 194 212 225 236 246 254 262 269 275 280 285 289 292
225 226 228 235 242 249 257 272 285 293 307 320 332 341 356 360 10 20 31 46 62 74 91 106 116 129 143 156 171 187 202 218 230 239 249 258 266 273 279 284 288 292 294 297
226 229 231 235 242 246 254 266 277 286 298 305 315 326 333 342 351 16 46 45 52 70 87 104 117 128 146 167 185 202 220 236 249 261 269 275 280 285 289 292 294 296 298 300
229 230 232 237 243 248 253 261 269 276 287 297 299 308 314 324 339 4 42 49 56 68 80 83 96 121 167 200 223 240 255 267 274 280 285 288 290 292 295 296 298 300 302 304
233 233 235 238 243 246 248 254 261 268 274 283 287 293 296 301 296 294 314 327 317 130 128 140 228 249 249 261 275 282 286 289 291 293 294 295 296 298 300 301 303 305 306 308